Location: DARK SKY Beskydy - Park tmavé oblohy, www.darkskybeskydy.cz
(49.4926°N, 18.5016°E)
Time: 04:15:58
(UTC+01:00)

N. Korean satellite - Pass Details

Date: 11 December 2022
Orbit: 407 x 441 km, 97.3° (Epoch: 05 February)

Event Time Altitude Azimuth Distance (km) Brightness Sun altitude
Rises 16:36:19 0° 184° (S) 2,473 10.6 -7.8°
Reaches altitude 10° 16:38:26 10° 193° (SSW) 1,611 9.8 -8.1°
Maximum altitude 16:41:41 37° 262° (W) 738 8.2 -8.6°
Drops below altitude 10° 16:44:59 10° 332° (NNW) 1,636 9.3 -9.0°
Sets 16:47:10 0° 341° (NNW) 2,518 10.1 -9.4°
